Location: Clairmont
(55.2667°N, 118.8000°W)
Time: 09:43:05
(UTC+00:00)

N. Korean satellite - Pass Details

Date: 29 October 2020
Orbit: 453 x 503 km, 97.2° (Epoch: 03 December)

Event Time Altitude Azimuth Distance (km) Brightness Sun altitude
Rises 13:53:23 0° 12° (NNE) 2,491 10.2 -9.2°
Reaches altitude 10° 13:55:27 10° 11° (N) 1,608 9.2 -8.9°
Maximum altitude 13:58:52 72° 287° (WNW) 485 6.3 -8.4°
Drops below altitude 10° 14:02:16 10° 203° (SSW) 1,591 9.1 -8.0°
Sets 14:04:18 0° 201° (SSW) 2,461 10.1 -7.7°
